Date String (YYYY-MM-DD hh:mm:ss) UTC,Instrument flags,absolute air pressure of the measurement (hPa),sample flow rate (lpm),inlet stack bypass flow (lpm),air temperature of the measurement (°C),ambient temperature measured by the external sensor (°C),aerosol sample conditioner tube jacket temperature (°C),OPC LED temperature (°C),internal box temperature (°C),relative humidity of the measurement (%),span deviation,mass concentration of particles derived from Lorenz-Mie calculation of OPC scattering (μg/m³),mass concentration of particles derived from Lorenz-Mie calculation of OPC scattering (μg/m³),mass concentration of particles derived from Lorenz-Mie calculation of OPC scattering (μg/m³)
DateTimeUTC,F1_M11,P_M11,Q1_M11,Q2_M11,T1_M11,T2_M11,T3_M11,T4_M11,T5_M11,U1_M11,ZSPAN_M11,X0_M11,X2_M11,X1_M11
2024-04-30 21:00:00,SystemResetWarning,0822.8,5.00,000.00,026.0,025.2,000.0,034.2,027.7,009.4,0000.0,0012.90,0004.64,0002.50
2024-04-30 21:01:00,SystemResetWarning,0822.7,5.00,000.00,026.0,025.2,000.0,034.3,027.7,008.7,0000.0,0012.97,0004.65,0002.50
2024-04-30 21:02:00,SystemResetWarning,0822.8,4.99,000.00,026.0,025.3,000.0,034.3,027.7,009.0,0000.0,0012.27,0004.66,0002.51
2024-04-30 21:03:00,SystemResetWarning,0822.9,4.99,000.00,026.0,025.3,000.0,034.3,027.8,009.0,0000.0,0011.85,0004.62,0002.50
2024-04-30 21:04:00,SystemResetWarning,0822.8,5.00,000.00,026.0,025.3,000.0,034.3,027.8,008.6,0000.0,0011.84,0004.61,0002.50
2024-04-30 21:05:00,SystemResetWarning,0822.8,5.00,000.00,026.0,025.3,000.0,034.3,027.8,008.2,0000.0,0012.11,0004.64,0002.51
2024-04-30 21:06:00,SystemResetWarning,0822.7,5.00,000.00,026.0,025.3,000.0,034.3,027.8,008.7,0000.0,0012.20,0004.62,0002.51
2024-04-30 21:07:00,SystemResetWarning,0822.7,5.00,000.00,026.1,025.4,000.0,034.3,027.8,008.9,0000.0,0012.42,0004.68,0002.50
2024-04-30 21:08:00,SystemResetWarning,0822.6,5.01,000.00,026.1,025.4,000.0,034.4,027.8,008.9,0000.0,0013.04,0004.65,0002.50
2024-04-30 21:09:00,SystemResetWarning,0822.8,5.00,000.00,026.1,025.4,000.0,034.4,027.9,008.3,0000.0,0013.24,0004.69,0002.52
2024-04-30 21:10:00,SystemResetWarning,0822.7,5.00,000.00,026.1,025.4,000.0,034.4,027.9,008.3,0000.0,0013.26,0004.67,0002.52
2024-04-30 21:11:00,SystemResetWarning,0822.7,4.99,000.00,026.1,025.4,000.0,034.4,027.9,008.5,0000.0,0013.28,0004.62,0002.53
2024-04-30 21:12:00,SystemResetWarning,0822.7,4.99,000.00,026.1,025.4,000.0,034.4,027.9,007.9,0000.0,0013.42,0004.63,0002.53
2024-04-30 21:13:00,SystemResetWarning,0823.0,5.00,000.00,026.1,025.4,000.0,034.4,027.9,008.3,0000.0,0013.76,0004.68,0002.53
2024-04-30 21:14:00,SystemResetWarning,0822.9,5.00,000.00,026.1,025.4,000.0,034.4,027.9,008.3,0000.0,0014.01,0004.73,0002.54
2024-04-30 21:15:00,SystemResetWarning,0822.8,5.01,000.00,026.1,025.4,000.0,034.5,027.9,008.4,0000.0,0014.68,0004.76,0002.52
2024-04-30 21:16:00,SystemResetWarning,0822.9,5.01,000.00,026.2,025.4,000.0,034.5,027.9,008.7,0000.0,0014.50,0004.75,0002.51
2024-04-30 21:17:00,SystemResetWarning,0822.9,4.99,000.00,026.2,025.4,000.0,034.5,028.0,009.1,0000.0,0014.28,0004.74,0002.49
2024-04-30 21:18:00,SystemResetWarning,0822.9,4.99,000.00,026.2,025.5,000.0,034.5,028.0,008.8,0000.0,0013.91,0004.67,0002.50
2024-04-30 21:19:00,SystemResetWarning,0822.6,5.00,000.00,026.2,025.5,000.0,034.5,028.0,008.9,0000.0,0013.71,0004.64,0002.49
2024-04-30 21:20:00,SystemResetWarning,0822.7,5.00,000.00,026.2,025.5,000.0,034.5,028.0,009.0,0000.0,0013.17,0004.63,0002.47
2024-04-30 21:21:00,SystemResetWarning,0822.8,5.01,000.00,026.2,025.5,000.0,034.5,028.0,009.1,0000.0,0012.78,0004.62,0002.47
2024-04-30 21:22:00,SystemResetWarning,0822.9,5.01,000.00,026.2,025.5,000.0,034.6,028.0,009.9,0000.0,0012.14,0004.62,0002.45
2024-04-30 21:23:00,SystemResetWarning,0822.8,4.99,000.00,026.3,025.6,000.0,034.6,028.0,009.6,0000.0,0011.62,0004.58,0002.42
2024-04-30 21:24:00,SystemResetWarning,0822.8,4.99,000.00,026.3,025.6,000.0,034.6,028.1,008.3,0000.0,0011.43,0004.51,0002.40
2024-04-30 21:25:00,SystemResetWarning,0822.8,5.00,000.00,026.3,025.6,000.0,034.6,028.1,008.3,0000.0,0011.38,0004.47,0002.38
2024-04-30 21:26:00,SystemResetWarning,0822.7,5.01,000.00,026.3,025.6,000.0,034.6,028.1,008.0,0000.0,0011.35,0004.48,0002.38
2024-04-30 21:27:00,SystemResetWarning,0822.8,5.00,000.00,026.3,025.6,000.0,034.6,028.1,008.4,0000.0,0011.30,0004.46,0002.38
2024-04-30 21:28:00,SystemResetWarning,0822.7,5.01,000.00,026.3,025.6,000.0,034.6,028.1,008.6,0000.0,0011.36,0004.41,0002.38
2024-04-30 21:29:00,SystemResetWarning,0822.9,4.99,000.00,026.4,025.6,000.0,034.7,028.1,008.4,0000.0,0011.39,0004.39,0002.37
2024-04-30 21:30:00,SystemResetWarning,0822.8,4.99,000.00,026.4,025.7,000.0,034.7,028.2,008.5,0000.0,0011.14,0004.31,0002.33
2024-04-30 21:31:00,SystemResetWarning,0822.8,4.99,000.00,026.4,025.7,000.0,034.7,028.2,009.0,0000.0,0011.34,0004.26,0002.32
2024-04-30 21:32:00,SystemResetWarning,0822.9,5.00,000.00,026.4,025.7,000.0,034.7,028.2,009.6,0000.0,0011.35,0004.21,0002.31
2024-04-30 21:33:00,SystemResetWarning,0822.8,5.01,000.00,026.4,025.7,000.0,034.7,028.2,008.6,0000.0,0011.21,0004.17,0002.28
2024-04-30 21:34:00,SystemResetWarning,0822.9,5.00,000.00,026.4,025.7,000.0,034.7,028.2,008.6,0000.0,0011.45,0004.21,0002.28
2024-04-30 21:35:00,SystemResetWarning,0823.0,5.00,000.00,026.5,025.7,000.0,034.7,028.2,009.0,0000.0,0011.44,0004.27,0002.28
2024-04-30 21:36:00,SystemResetWarning,0822.8,5.00,000.00,026.5,025.8,000.0,034.8,028.2,009.1,0000.0,0011.08,0004.24,0002.27
2024-04-30 21:37:00,SystemResetWarning,0822.8,5.00,000.00,026.4,025.3,000.0,034.8,027.9,008.9,0000.0,0011.01,0004.20,0002.28
2024-04-30 21:38:00,SystemResetWarning,0822.8,4.99,000.00,026.1,023.4,000.0,034.8,026.8,009.1,0000.0,0010.30,0004.18,0002.27
2024-04-30 21:39:00,SystemResetWarning,0822.6,5.02,000.00,025.7,022.6,000.0,034.8,026.3,009.4,0000.0,0010.47,0004.22,0002.25
2024-04-30 21:40:00,SystemResetWarning,0822.7,4.98,000.00,025.6,022.9,000.0,034.6,026.5,008.6,0000.0,0010.74,0004.28,0002.25
2024-04-30 21:41:00,SystemResetWarning,0822.9,5.00,000.00,025.5,023.3,000.0,034.5,026.7,008.6,0000.0,0010.93,0004.27,0002.25
2024-04-30 21:42:00,SystemResetWarning,0822.8,5.01,000.00,025.6,023.6,000.0,034.4,027.0,008.5,0000.0,0011.01,0004.31,0002.27
2024-04-30 21:43:00,SystemResetWarning,0823.0,5.01,000.00,025.6,023.9,000.0,034.3,027.1,009.2,0000.0,0010.98,0004.32,0002.26
2024-04-30 21:44:00,SystemResetWarning,0822.7,5.00,000.00,025.6,024.1,000.0,034.3,027.2,009.4,0000.0,0011.79,0004.35,0002.27
2024-04-30 21:45:00,SystemResetWarning,0822.7,5.00,000.00,025.6,024.3,000.0,034.3,027.4,009.0,0000.0,0011.89,0004.39,0002.28
2024-04-30 21:46:00,SystemResetWarning,0822.7,4.99,000.00,025.7,024.5,000.0,034.2,027.4,008.8,0000.0,0012.00,0004.37,0002.27
2024-04-30 21:47:00,SystemResetWarning,0822.7,4.99,000.00,025.7,024.7,000.0,034.2,027.5,009.4,0000.0,0011.93,0004.30,0002.26
2024-04-30 21:48:00,SystemResetWarning,0822.7,5.00,000.00,025.7,024.8,000.0,034.2,027.5,009.4,0000.0,0012.19,0004.29,0002.25
2024-04-30 21:49:00,SystemResetWarning,0822.9,5.01,000.00,025.8,024.9,000.0,034.2,027.6,009.7,0000.0,0012.31,0004.34,0002.25
2024-04-30 21:50:00,SystemResetWarning,0822.8,5.00,000.00,025.8,025.0,000.0,034.2,027.6,010.0,0000.0,0012.11,0004.29,0002.25
2024-04-30 21:51:00,SystemResetWarning,0822.7,5.00,000.00,025.9,025.1,000.0,034.2,027.7,009.1,0000.0,0011.83,0004.22,0002.25
2024-04-30 21:52:00,SystemResetWarning,0822.6,4.99,000.00,025.9,025.2,000.0,034.2,027.8,008.7,0000.0,0011.62,0004.23,0002.25
2024-04-30 21:53:00,SystemResetWarning,0822.6,5.00,000.00,026.0,025.3,000.0,034.3,027.8,008.6,0000.0,0011.88,0004.23,0002.25
2024-04-30 21:54:00,SystemResetWarning,0822.9,4.99,000.00,026.0,025.3,000.0,034.3,027.9,008.2,0000.0,0011.52,0004.16,0002.25
2024-04-30 21:55:00,SystemResetWarning,0822.7,5.00,000.00,026.0,025.4,000.0,034.3,027.9,008.5,0000.0,0010.65,0004.13,0002.26
2024-04-30 21:56:00,SystemResetWarning,0822.9,5.01,000.00,026.1,025.4,000.0,034.3,027.9,008.6,0000.0,0010.53,0004.12,0002.27
2024-04-30 21:57:00,SystemResetWarning,0822.7,5.01,000.00,026.1,025.5,000.0,034.3,028.0,008.4,0000.0,0010.54,0004.08,0002.27
2024-04-30 21:58:00,SystemResetWarning,0822.8,4.99,000.00,026.1,025.5,000.0,034.4,028.0,009.1,0000.0,0010.66,0004.12,0002.29
2024-04-30 21:59:00,SystemResetWarning,0822.8,4.99,000.00,026.1,025.3,000.0,034.4,027.8,008.9,0000.0,0011.32,0004.14,0002.28
